This is the latest recevied weather packets stored in our database for station/object K5OLV. If no packets are shown the sender has not sent any weather packets the latest 10 day(s).
| Time | Temp. | Humidity | Pressure | Rain* | Wind** | Luminosity | Snow |
|---|---|---|---|---|---|---|---|
| 1788570170 | 25.56° C | 86% | 1014.1 hPa | 0 mm | - | 0 W/m² | - |
| 1788569867 | 25.56° C | 86% | 1014.3 hPa | 0 mm | - | 0 W/m² | - |
| 1788569562 | 25.56° C | 86% | 1014.3 hPa | 0 mm | - | 0 W/m² | - |
| 1788569262 | 26.11° C | 86% | 1014.3 hPa | 0 mm | - | 0 W/m² | - |
| 1788568957 | 26.11° C | 86% | 1014 hPa | 0 mm | - | 0 W/m² | - |
| 1788568657 | 26.11° C | 85% | 1014.1 hPa | 0 mm | - | 0 W/m² | - |
| 1788568352 | 26.11° C | 86% | 1014.3 hPa | 0 mm | - | 0 W/m² | - |
| 1788568048 | 26.11° C | 84% | 1014.2 hPa | 0 mm | - | 0 W/m² | - |
| 1788567748 | 26.11° C | 84% | 1014.1 hPa | 0 mm | - | 0 W/m² | - |
| 1788567443 | 26.11° C | 86% | 1014 hPa | 0 mm | - | 0 W/m² | - |
| 1788567142 | 26.67° C | 86% | 1014 hPa | 0 mm | - | 0 W/m² | - |
| 1788566838 | 26.67° C | 86% | 1014.1 hPa | 0 mm | - | 0 W/m² | - |
| 1788566533 | 26.67° C | 85% | 1014.2 hPa | 0 mm | - | 1 W/m² | - |
| 1788566229 | 27.22° C | 85% | 1013.9 hPa | 0 mm | - | 1 W/m² | - |
| 1788565923 | 27.22° C | 85% | 1014 hPa | 0 mm | - | 3 W/m² | - |
| 1788565618 | 27.78° C | 84% | 1014.1 hPa | 0 mm | - | 4 W/m² | - |
| 1788565313 | 27.78° C | 82% | 1014.2 hPa | 0 mm | - | 5 W/m² | - |
| 1788565009 | 28.33° C | 81% | 1014 hPa | 0 mm | - | 7 W/m² | - |
| 1788564704 | 28.33° C | 80% | 1013.8 hPa | 0 mm | - | 8 W/m² | - |
| 1788564401 | 28.89° C | 77% | 1014.1 hPa | 0 mm | - | 9 W/m² | - |
| 1788564097 | 30° C | 75% | 1014 hPa | 0 mm | - | 11 W/m² | - |
| 1788563792 | 30° C | 73% | 1013.5 hPa | 0 mm | - | 12 W/m² | - |
| 1788563487 | 30.56° C | 72% | 1013.5 hPa | 0 mm | - | 14 W/m² | - |
| 1788563187 | 30.56° C | 71% | 1013.9 hPa | 0 mm | - | 17 W/m² | - |
| 1788562883 | 30.56° C | 69% | 1013.8 hPa | 0 mm | - | 23 W/m² | - |
* Rain latest hour (hover to see other rain measurements)
** Current wind speed in m/s (hover to see current wind gust speed)